| time (UTC) | temp C | wind direction | speed KPH | gust KPH | rain 1hr cm | rain 24hr cm | rain mn cm | humidity % | barometer mb |
| 20260507031020 | 14 | 246 | 3.2 | 9.7 | 0.00 | 0.15 | 0.15 | 94 | 1009.6 |
| 20260507030517 | 14 | 278 | 4.8 | 9.7 | 0.00 | 0.15 | 0.15 | 94 | 1009.5 |
| 20260507030009 | 14 | 218 | 4.8 | 11.3 | 0.00 | 0.15 | 0.15 | 94 | 1009.6 |
| 20260507025508 | 14 | 225 | 4.8 | 11.3 | 0.00 | 0.15 | 0.15 | 94 | 1009.5 |
| 20260507025001 | 14 | 198 | 4.8 | 11.3 | 0.00 | 0.15 | 0.15 | 94 | 1009.5 |
| 20260507024502 | 14 | 161 | 4.8 | 9.7 | 0.00 | 0.15 | 0.15 | 94 | 1009.5 |
| 20260507024000 | 14 | 223 | 4.8 | 9.7 | 0.00 | 0.15 | 0.15 | 94 | 1009.5 |
| 20260507023500 | 14 | 239 | 4.8 | 9.7 | 0.00 | 0.15 | 0.15 | 94 | 1009.4 |
| 20260507023000 | 13 | 191 | 3.2 | 9.7 | 0.00 | 0.15 | 0.15 | 94 | 1009.5 |
| 20260507022501 | 13 | 240 | 4.8 | 9.7 | 0.00 | 0.15 | 0.15 | 94 | 1009.5 |
| 20260507022001 | 13 | 251 | 4.8 | 9.7 | 0.00 | 0.15 | 0.15 | 94 | 1009.5 |
| 20260507021501 | 13 | 236 | 4.8 | 9.7 | 0.00 | 0.15 | 0.15 | 94 | 1009.5 |
| 20260507021001 | 13 | 196 | 3.2 | 9.7 | 0.00 | 0.15 | 0.15 | 94 | 1009.5 |
| 20260507020501 | 13 | 234 | 3.2 | 9.7 | 0.00 | 0.15 | 0.15 | 94 | 1009.5 |
| 20260507020001 | 13 | 177 | 3.2 | 8.0 | 0.00 | 0.15 | 0.15 | 94 | 1009.5 |
| 20260507015502 | 13 | 128 | 3.2 | 9.7 | 0.00 | 0.15 | 0.15 | 94 | 1009.5 |
| 20260507015231 | 13 | 228 | 3.2 | 9.7 | 0.00 | 0.15 | 0.15 | 94 | 1009.5 |
| 20260507014501 | 13 | 235 | 3.2 | 9.7 | 0.00 | 0.15 | 0.15 | 94 | 1009.5 |
| 20260507013957 | 13 | 194 | 4.8 | 9.7 | 0.00 | 0.15 | 0.15 | 94 | 1009.5 |
| 20260507013943 | 13 | 163 | 4.8 | 9.7 | 0.00 | 0.15 | 0.15 | 94 | 1009.6 |
| 20260507012957 | 13 | 196 | 4.8 | 12.9 | 0.00 | 0.15 | 0.15 | 94 | 1009.6 |
| 20260507012452 | 13 | 190 | 4.8 | 12.9 | 0.00 | 0.15 | 0.15 | 94 | 1009.6 |
| 20260507012214 | 13 | 229 | 4.8 | 11.3 | 0.00 | 0.15 | 0.15 | 94 | 1009.8 |
| 20260507011449 | 13 | 248 | 4.8 | 9.7 | 0.00 | 0.15 | 0.15 | 94 | 1009.8 |
| 20260507011411 | 13 | 250 | 4.8 | 8.0 | 0.00 | 0.15 | 0.15 | 94 | 1009.8 |
| 20260507010654 | 13 | 240 | 4.8 | 8.0 | 0.00 | 0.15 | 0.15 | 94 | 1009.8 |
| 20260507005934 | 13 | 244 | 4.8 | 9.7 | 0.00 | 0.15 | 0.15 | 94 | 1009.7 |
| 20260507005421 | 13 | 184 | 4.8 | 9.7 | 0.00 | 0.15 | 0.15 | 94 | 1009.9 |
| 20260507004921 | 13 | 190 | 4.8 | 9.7 | 0.00 | 0.15 | 0.15 | 94 | 1009.9 |
| 20260507004421 | 13 | 184 | 4.8 | 9.7 | 0.00 | 0.15 | 0.15 | 94 | 1009.8 |
| 20260507003922 | 13 | 240 | 4.8 | 9.7 | 0.00 | 0.15 | 0.15 | 94 | 1009.9 |
| 20260507003421 | 13 | 250 | 4.8 | 8.0 | 0.00 | 0.15 | 0.15 | 94 | 1009.8 |
| 20260507002919 | 13 | 161 | 3.2 | 6.4 | 0.00 | 0.15 | 0.15 | 94 | 1009.8 |
| 20260507002419 | 13 | 157 | 4.8 | 11.3 | 0.00 | 0.15 | 0.15 | 94 | 1009.7 |
| 20260507001910 | 13 | 200 | 4.8 | 11.3 | 0.00 | 0.15 | 0.15 | 94 | 1009.7 |
| 20260507001410 | 13 | 237 | 4.8 | 9.7 | 0.00 | 0.15 | 0.15 | 93 | 1009.7 |
| 20260507001133 | 13 | 179 | 4.8 | 9.7 | 0.00 | 0.15 | 0.15 | 93 | 1009.7 |
| 20260507000412 | 13 | 177 | 4.8 | 9.7 | 0.00 | 0.15 | 0.15 | 93 | 1009.7 |
| 20260506235905 | 13 | 215 | 4.8 | 9.7 | 0.00 | 0.15 | 0.15 | 93 | 1009.7 |
| 20260506235846 | 13 | 202 | 4.8 | 9.7 | 0.00 | 0.15 | 0.15 | 93 | 1009.7 |
| 20260506234905 | 13 | 223 | 4.8 | 9.7 | 0.00 | 0.15 | 0.15 | 93 | 1009.7 |
| 20260506234405 | 13 | 272 | 4.8 | 11.3 | 0.00 | 0.15 | 0.15 | 93 | 1009.6 |
| 20260506233905 | 13 | 203 | 4.8 | 11.3 | 0.00 | 0.15 | 0.15 | 93 | 1009.6 |
| 20260506233405 | 13 | 238 | 4.8 | 9.7 | 0.00 | 0.15 | 0.15 | 93 | 1009.5 |
| 20260506232904 | 13 | 252 | 4.8 | 12.9 | 0.03 | 0.15 | 0.15 | 93 | 1009.5 |
| 20260506232406 | 13 | 192 | 6.4 | 12.9 | 0.03 | 0.15 | 0.15 | 93 | 1009.5 |
| 20260506231905 | 13 | 209 | 6.4 | 12.9 | 0.00 | 0.15 | 0.15 | 93 | 1009.6 |
| 20260506231406 | 13 | 221 | 4.8 | 9.7 | 0.00 | 0.15 | 0.15 | 93 | 1009.6 |
| 20260506230906 | 13 | 194 | 4.8 | 9.7 | 0.00 | 0.15 | 0.15 | 93 | 1009.6 |
| 20260506230623 | 13 | 357 | 4.8 | 12.9 | 0.00 | 0.15 | 0.15 | 93 | 1009.6 |
| 20260506225900 | 13 | 229 | 4.8 | 12.9 | 0.00 | 0.15 | 0.15 | 93 | 1009.6 |
| 20260506225354 | 13 | 154 | 4.8 | 11.3 | 0.00 | 0.15 | 0.15 | 92 | 1009.7 |
| 20260506224851 | 13 | 219 | 4.8 | 8.0 | 0.00 | 0.15 | 0.15 | 92 | 1009.6 |
| 20260506224335 | 13 | 161 | 4.8 | 8.0 | 0.00 | 0.15 | 0.15 | 92 | 1009.5 |
| 20260506223835 | 13 | 201 | 4.8 | 8.0 | 0.00 | 0.15 | 0.15 | 92 | 1009.5 |
| 20260506223335 | 14 | 184 | 4.8 | 8.0 | 0.00 | 0.15 | 0.15 | 92 | 1009.4 |
| 20260506223102 | 14 | 175 | 4.8 | 8.0 | 0.00 | 0.13 | 0.13 | 92 | 1009.4 |
| 20260506222559 | 14 | 192 | 4.8 | 8.0 | 0.00 | 0.13 | 0.13 | 92 | 1009.5 |
| 20260506221836 | 14 | 188 | 4.8 | 8.0 | 0.00 | 0.13 | 0.13 | 92 | 1009.5 |
| 20260506221336 | 14 | 211 | 4.8 | 9.7 | 0.00 | 0.13 | 0.13 | 92 | 1009.5 |
| 20260506220830 | 14 | 142 | 4.8 | 9.7 | 0.00 | 0.13 | 0.13 | 91 | 1009.7 |
| 20260506220330 | 14 | 160 | 6.4 | 9.7 | 0.00 | 0.13 | 0.13 | 91 | 1009.8 |
| 20260506215830 | 14 | 173 | 4.8 | 9.7 | 0.00 | 0.13 | 0.13 | 91 | 1009.9 |
| 20260506215327 | 15 | 191 | 4.8 | 9.7 | 0.00 | 0.13 | 0.13 | 91 | 1009.8 |
| 20260506214825 | 15 | 275 | 3.2 | 9.7 | 0.00 | 0.13 | 0.13 | 90 | 1009.8 |
| 20260506214547 | 15 | 174 | 3.2 | 11.3 | 0.00 | 0.13 | 0.13 | 90 | 1010.0 |
| 20260506213818 | 15 | 171 | 4.8 | 11.3 | 0.00 | 0.13 | 0.13 | 90 | 1009.9 |
| 20260506213318 | 15 | 174 | 6.4 | 12.9 | 0.00 | 0.13 | 0.13 | 90 | 1009.9 |
| 20260506212813 | 15 | 228 | 6.4 | 14.5 | 0.00 | 0.13 | 0.13 | 90 | 1010.0 |
| 20260506212313 | 15 | 247 | 6.4 | 17.7 | 0.00 | 0.13 | 0.13 | 89 | 1010.0 |
| 20260506211813 | 15 | 221 | 6.4 | 17.7 | 0.00 | 0.13 | 0.13 | 89 | 1010.0 |
| 20260506211312 | 15 | 197 | 6.4 | 12.9 | 0.00 | 0.13 | 0.13 | 89 | 1010.1 |
| 20260506210812 | 15 | 198 | 4.8 | 12.9 | 0.00 | 0.13 | 0.13 | 90 | 1010.2 |
| 20260506210313 | 15 | 186 | 4.8 | 14.5 | 0.00 | 0.13 | 0.13 | 90 | 1010.2 |
| 20260506205813 | 15 | 286 | 6.4 | 14.5 | 0.00 | 0.13 | 0.13 | 90 | 1010.2 |
| 20260506205313 | 15 | 192 | 4.8 | 14.5 | 0.00 | 0.13 | 0.13 | 90 | 1010.3 |
| 20260506204813 | 15 | 168 | 4.8 | 16.1 | 0.00 | 0.13 | 0.13 | 90 | 1010.3 |
| 20260506204531 | 15 | 45 | 6.4 | 16.1 | 0.00 | 0.13 | 0.13 | 90 | 1010.3 |
| 20260506203813 | 15 | 273 | 6.4 | 14.5 | 0.00 | 0.13 | 0.13 | 90 | 1010.3 |
| 20260506203537 | 15 | 150 | 6.4 | 17.7 | 0.03 | 0.13 | 0.13 | 90 | 1010.4 |
| 20260506202810 | 15 | 257 | 8.0 | 17.7 | 0.05 | 0.13 | 0.13 | 90 | 1010.4 |
| 20260506202308 | 15 | 289 | 8.0 | 14.5 | 0.05 | 0.13 | 0.13 | 90 | 1010.4 |
| 20260506201808 | 15 | 206 | 8.0 | 14.5 | 0.08 | 0.13 | 0.13 | 90 | 1010.4 |
| 20260506201308 | 15 | 263 | 6.4 | 17.7 | 0.10 | 0.13 | 0.13 | 90 | 1010.4 |
| 20260506200808 | 15 | 179 | 6.4 | 17.7 | 0.10 | 0.13 | 0.13 | 90 | 1010.5 |
| 20260506200308 | 15 | 247 | 6.4 | 17.7 | 0.10 | 0.13 | 0.13 | 89 | 1010.6 |
| 20260506195808 | 15 | 231 | 6.4 | 11.3 | 0.10 | 0.13 | 0.13 | 89 | 1010.6 |
| 20260506195308 | 15 | 160 | 6.4 | 11.3 | 0.13 | 0.13 | 0.13 | 89 | 1010.5 |
| 20260506194808 | 15 | 173 | 6.4 | 12.9 | 0.13 | 0.13 | 0.13 | 89 | 1010.4 |
| 20260506194530 | 16 | 89 | 6.4 | 12.9 | 0.13 | 0.13 | 0.13 | 88 | 1010.5 |
| 20260506194031 | 16 | 198 | 6.4 | 12.9 | 0.13 | 0.13 | 0.13 | 87 | 1010.6 |
| 20260506193306 | 16 | 172 | 4.8 | 9.7 | 0.10 | 0.10 | 0.10 | 87 | 1010.6 |
| 20260506193027 | 16 | 214 | 4.8 | 12.9 | 0.08 | 0.08 | 0.08 | 86 | 1010.6 |
| 20260506192306 | 16 | 187 | 6.4 | 12.9 | 0.08 | 0.08 | 0.08 | 85 | 1010.6 |
| 20260506191806 | 16 | 203 | 6.4 | 12.9 | 0.05 | 0.05 | 0.05 | 84 | 1010.7 |
| 20260506191307 | 17 | 213 | 6.4 | 16.1 | 0.05 | 0.05 | 0.05 | 83 | 1010.6 |
| 20260506190807 | 17 | 162 | 6.4 | 16.1 | 0.03 | 0.03 | 0.03 | 82 | 1010.7 |
| 20260506190307 | 17 | 207 | 6.4 | 11.3 | 0.03 | 0.03 | 0.03 | 80 | 1010.8 |
| 20260506190031 | 17 | 319 | 6.4 | 14.5 | 0.03 | 0.03 | 0.03 | 79 | 1010.8 |
| 20260506185307 | 17 | 231 | 6.4 | 14.5 | 0.00 | 0.00 | 0.00 | 78 | 1010.9 |
| 20260506185029 | 17 | 178 | 6.4 | 14.5 | 0.00 | 0.00 | 0.00 | 77 | 1011.0 |
| 20260506184308 | 17 | 146 | 6.4 | 14.5 | 0.00 | 0.00 | 0.00 | 77 | 1011.0 |
| 20260506183808 | 18 | 205 | 6.4 | 14.5 | 0.00 | 0.00 | 0.00 | 76 | 1010.8 |
| 20260506183528 | 18 | 187 | 6.4 | 14.5 | 0.00 | 0.00 | 0.00 | 75 | 1010.9 |
| 20260506182809 | 18 | 311 | 6.4 | 14.5 | 0.00 | 0.00 | 0.00 | 74 | 1011.0 |
| 20260506182052 | 18 | 164 | 6.4 | 14.5 | 0.00 | 0.00 | 0.00 | 74 | 1011.1 |
| 20260506181551 | 18 | 177 | 6.4 | 16.1 | 0.00 | 0.00 | 0.00 | 73 | 1011.1 |
| 20260506181046 | 18 | 175 | 8.0 | 16.1 | 0.00 | 0.00 | 0.00 | 73 | 1011.1 |
| 20260506180546 | 18 | 204 | 6.4 | 16.1 | 0.00 | 0.00 | 0.00 | 72 | 1011.0 |
| 20260506180046 | 19 | 162 | 6.4 | 14.5 | 0.00 | 0.00 | 0.00 | 72 | 1011.1 |
| 20260506175546 | 19 | 102 | 6.4 | 14.5 | 0.00 | 0.00 | 0.00 | 71 | 1011.2 |
| 20260506175046 | 19 | 171 | 6.4 | 12.9 | 0.00 | 0.00 | 0.00 | 70 | 1011.3 |
| 20260506174546 | 19 | 211 | 6.4 | 14.5 | 0.00 | 0.00 | 0.00 | 70 | 1011.3 |
| 20260506174313 | 20 | 200 | 6.4 | 14.5 | 0.00 | 0.00 | 0.00 | 69 | 1011.3 |
| 20260506173546 | 20 | 184 | 6.4 | 11.3 | 0.00 | 0.00 | 0.00 | 69 | 1011.4 |
| 20260506173046 | 20 | 203 | 6.4 | 12.9 | 0.00 | 0.00 | 0.00 | 69 | 1011.5 |
| 20260506172542 | 20 | 159 | 6.4 | 12.9 | 0.00 | 0.00 | 0.00 | 68 | 1011.7 |
| 20260506172040 | 20 | 305 | 6.4 | 14.5 | 0.00 | 0.00 | 0.00 | 68 | 1011.7 |
| 20260506171541 | 20 | 10 | 8.0 | 16.1 | 0.00 | 0.00 | 0.00 | 68 | 1011.6 |
| 20260506171041 | 20 | 179 | 8.0 | 16.1 | 0.00 | 0.00 | 0.00 | 68 | 1011.5 |
| 20260506170541 | 20 | 237 | 6.4 | 14.5 | 0.00 | 0.00 | 0.00 | 67 | 1011.5 |
| 20260506170041 | 20 | 246 | 6.4 | 19.3 | 0.00 | 0.00 | 0.00 | 66 | 1011.4 |
| 20260506165541 | 20 | 334 | 6.4 | 19.3 | 0.00 | 0.00 | 0.00 | 68 | 1011.5 |
| 20260506165041 | 20 | 185 | 8.0 | 22.5 | 0.00 | 0.00 | 0.00 | 66 | 1011.6 |
| 20260506164541 | 20 | 113 | 8.0 | 22.5 | 0.00 | 0.00 | 0.00 | 66 | 1011.7 |
| 20260506164041 | 20 | 249 | 8.0 | 22.5 | 0.00 | 0.00 | 0.00 | 67 | 1011.8 |
| 20260506164022 | 20 | 160 | 9.7 | 19.3 | 0.00 | 0.00 | 0.00 | 66 | 1012.0 |
| 20260506163042 | 20 | 229 | 9.7 | 19.3 | 0.00 | 0.00 | 0.00 | 66 | 1012.0 |
| 20260506162541 | 20 | 169 | 9.7 | 22.5 | 0.00 | 0.00 | 0.00 | 66 | 1012.2 |
| 20260506162041 | 20 | 172 | 9.7 | 22.5 | 0.00 | 0.00 | 0.00 | 65 | 1012.2 |
| 20260506161541 | 20 | 180 | 9.7 | 16.1 | 0.00 | 0.00 | 0.00 | 66 | 1012.0 |
| 20260506161304 | 20 | 188 | 8.0 | 14.5 | 0.00 | 0.00 | 0.00 | 65 | 1012.2 |
| 20260506160541 | 21 | 175 | 6.4 | 12.9 | 0.00 | 0.00 | 0.00 | 66 | 1012.3 |
| 20260506160036 | 21 | 172 | 4.8 | 12.9 | 0.00 | 0.00 | 0.00 | 66 | 1012.3 |
| 20260506155536 | 21 | 144 | 6.4 | 16.1 | 0.00 | 0.00 | 0.00 | 65 | 1012.4 |
| 20260506155037 | 21 | 262 | 8.0 | 19.3 | 0.00 | 0.00 | 0.00 | 64 | 1012.5 |
| 20260506154536 | 21 | 268 | 6.4 | 19.3 | 0.00 | 0.00 | 0.00 | 64 | 1012.6 |
| 20260506154036 | 21 | 226 | 6.4 | 14.5 | 0.00 | 0.00 | 0.00 | 65 | 1012.5 |
| 20260506153536 | 21 | 135 | 8.0 | 14.5 | 0.00 | 0.00 | 0.00 | 65 | 1012.5 |
| 20260506153036 | 21 | 191 | 8.0 | 17.7 | 0.00 | 0.00 | 0.00 | 65 | 1012.6 |
| 20260506152802 | 21 | 208 | 6.4 | 17.7 | 0.00 | 0.00 | 0.00 | 66 | 1012.7 |
| 20260506152036 | 20 | 184 | 4.8 | 19.3 | 0.00 | 0.00 | 0.00 | 68 | 1012.7 |
| 20260506151536 | 20 | 168 | 6.4 | 19.3 | 0.00 | 0.00 | 0.00 | 68 | 1012.8 |
| 20260506151036 | 20 | 299 | 6.4 | 16.1 | 0.00 | 0.00 | 0.00 | 69 | 1012.7 |
| 20260506150536 | 20 | 164 | 6.4 | 12.9 | 0.00 | 0.00 | 0.00 | 68 | 1012.8 |
| 20260506150036 | 20 | 160 | 4.8 | 12.9 | 0.00 | 0.00 | 0.00 | 69 | 1012.9 |
| 20260506145536 | 20 | 175 | 6.4 | 16.1 | 0.00 | 0.00 | 0.00 | 70 | 1012.8 |
| 20260506145251 | 20 | 253 | 6.4 | 17.7 | 0.00 | 0.00 | 0.00 | 71 | 1012.8 |
| 20260506144756 | 20 | 280 | 6.4 | 17.7 | 0.00 | 0.00 | 0.00 | 70 | 1012.8 |
| 20260506144030 | 20 | 176 | 4.8 | 12.9 | 0.00 | 0.00 | 0.00 | 70 | 1012.8 |
| 20260506143531 | 20 | 278 | 6.4 | 12.9 | 0.00 | 0.00 | 0.00 | 69 | 1012.7 |
| 20260506143031 | 20 | 264 | 8.0 | 16.1 | 0.00 | 0.00 | 0.00 | 69 | 1012.7 |
| 20260506142531 | 20 | 170 | 8.0 | 19.3 | 0.00 | 0.00 | 0.00 | 69 | 1012.6 |
| 20260506142031 | 20 | 164 | 8.0 | 19.3 | 0.00 | 0.00 | 0.00 | 69 | 1012.6 |
| 20260506141531 | 20 | 24 | 8.0 | 19.3 | 0.00 | 0.00 | 0.00 | 68 | 1012.7 |
| 20260506141031 | 20 | 178 | 8.0 | 19.3 | 0.00 | 0.00 | 0.00 | 68 | 1012.8 |
| 20260506140531 | 20 | 250 | 8.0 | 19.3 | 0.00 | 0.00 | 0.00 | 68 | 1012.9 |
| 20260506140031 | 20 | 287 | 6.4 | 19.3 | 0.00 | 0.00 | 0.00 | 68 | 1012.7 |
| 20260506135531 | 19 | 204 | 6.4 | 14.5 | 0.00 | 0.00 | 0.00 | 70 | 1012.7 |
| 20260506135031 | 19 | 177 | 8.0 | 16.1 | 0.00 | 0.00 | 0.00 | 69 | 1012.6 |
| 20260506134531 | 19 | 185 | 9.7 | 16.1 | 0.00 | 0.00 | 0.00 | 70 | 1012.7 |
| 20260506134257 | 19 | 211 | 9.7 | 16.1 | 0.00 | 0.00 | 0.00 | 70 | 1012.9 |
| 20260506133525 | 19 | 182 | 8.0 | 14.5 | 0.00 | 0.00 | 0.00 | 71 | 1012.9 |
| 20260506133026 | 19 | 169 | 6.4 | 14.5 | 0.00 | 0.00 | 0.00 | 71 | 1013.1 |
| 20260506132526 | 18 | 176 | 6.4 | 14.5 | 0.00 | 0.00 | 0.00 | 73 | 1013.2 |
| 20260506132027 | 18 | 263 | 6.4 | 17.7 | 0.00 | 0.00 | 0.00 | 74 | 1013.3 |
| 20260506131526 | 18 | 311 | 6.4 | 17.7 | 0.00 | 0.00 | 0.00 | 75 | 1013.3 |
| 20260506131026 | 18 | 241 | 6.4 | 14.5 | 0.00 | 0.00 | 0.00 | 76 | 1013.3 |
| 20260506130747 | 17 | 221 | 6.4 | 14.5 | 0.00 | 0.00 | 0.00 | 76 | 1013.3 |
| 20260506130026 | 17 | 200 | 6.4 | 14.5 | 0.00 | 0.00 | 0.00 | 77 | 1013.2 |
| 20260506125526 | 17 | 269 | 8.0 | 22.5 | 0.00 | 0.00 | 0.00 | 78 | 1013.2 |
| 20260506125026 | 17 | 195 | 8.0 | 22.5 | 0.00 | 0.00 | 0.00 | 79 | 1013.2 |
| 20260506124526 | 17 | 263 | 8.0 | 19.3 | 0.00 | 0.00 | 0.00 | 80 | 1013.3 |
| 20260506124026 | 17 | 175 | 6.4 | 12.9 | 0.00 | 0.00 | 0.00 | 80 | 1013.3 |
| 20260506123526 | 17 | 262 | 6.4 | 12.9 | 0.00 | 0.00 | 0.00 | 81 | 1013.2 |
| 20260506123020 | 16 | 220 | 6.4 | 12.9 | 0.00 | 0.00 | 0.00 | 81 | 1013.3 |
| 20260506122746 | 16 | 199 | 4.8 | 11.3 | 0.00 | 0.00 | 0.00 | 82 | 1013.2 |
| 20260506122505 | 16 | 167 | 4.8 | 9.7 | 0.00 | 0.00 | 0.00 | 83 | 1013.2 |
| 20260506121520 | 16 | 181 | 4.8 | 12.9 | 0.00 | 0.00 | 0.00 | 83 | 1013.2 |
| 20260506121015 | 16 | 288 | 4.8 | 12.9 | 0.00 | 0.00 | 0.00 | 84 | 1013.2 |
| 20260506120739 | 16 | 146 | 4.8 | 9.7 | 0.00 | 0.00 | 0.00 | 84 | 1013.4 |
| 20260506120015 | 16 | 158 | 6.4 | 9.7 | 0.00 | 0.00 | 0.00 | 85 | 1013.5 |
| 20260506115515 | 15 | 176 | 6.4 | 9.7 | 0.00 | 0.00 | 0.00 | 86 | 1013.5 |
| 20260506115014 | 15 | 244 | 4.8 | 8.0 | 0.00 | 0.00 | 0.00 | 86 | 1013.7 |
| 20260506114744 | 15 | 210 | 4.8 | 12.9 | 0.00 | 0.00 | 0.00 | 86 | 1013.8 |
| 20260506114009 | 15 | 155 | 4.8 | 14.5 | 0.00 | 0.00 | 0.00 | 86 | 1013.8 |
| 20260506113510 | 15 | 181 | 4.8 | 14.5 | 0.00 | 0.00 | 0.00 | 86 | 1013.8 |
| 20260506113232 | 15 | 177 | 4.8 | 9.7 | 0.00 | 0.00 | 0.00 | 87 | 1013.8 |
| 20260506112733 | 15 | 187 | 4.8 | 9.7 | 0.00 | 0.00 | 0.00 | 87 | 1013.8 |
| 20260506112003 | 15 | 176 | 4.8 | 9.7 | 0.00 | 0.00 | 0.00 | 88 | 1013.8 |
| 20260506111722 | 15 | 174 | 3.2 | 6.4 | 0.00 | 0.00 | 0.00 | 88 | 1013.8 |
| 20260506111000 | 14 | 176 | 4.8 | 6.4 | 0.00 | 0.00 | 0.00 | 89 | 1013.7 |
| 20260506110721 | 14 | 188 | 4.8 | 6.4 | 0.00 | 0.00 | 0.00 | 89 | 1013.7 |
| 20260506110222 | 14 | 177 | 3.2 | 6.4 | 0.00 | 0.00 | 0.00 | 89 | 1013.6 |
| 20260506105501 | 14 | 202 | 3.2 | 8.0 | 0.00 | 0.00 | 0.00 | 88 | 1013.6 |
| 20260506105001 | 14 | 221 | 3.2 | 8.0 | 0.00 | 0.00 | 0.00 | 88 | 1013.6 |
| 20260506104501 | 14 | 148 | 3.2 | 8.0 | 0.00 | 0.00 | 0.00 | 88 | 1013.6 |
| 20260506104000 | 14 | 182 | 4.8 | 6.4 | 0.00 | 0.00 | 0.00 | 88 | 1013.7 |
| 20260506103502 | 14 | 163 | 4.8 | 8.0 | 0.00 | 0.00 | 0.00 | 88 | 1013.6 |
| 20260506102952 | 14 | 206 | 4.8 | 8.0 | 0.00 | 0.00 | 0.00 | 88 | 1013.6 |
| 20260506102446 | 14 | 163 | 4.8 | 8.0 | 0.00 | 0.00 | 0.00 | 88 | 1013.5 |
| 20260506101946 | 14 | 174 | 4.8 | 9.7 | 0.00 | 0.00 | 0.00 | 88 | 1013.5 |
| 20260506101434 | 14 | 185 | 4.8 | 9.7 | 0.00 | 0.00 | 0.00 | 88 | 1013.5 |
| 20260506101201 | 14 | 220 | 4.8 | 12.9 | 0.00 | 0.00 | 0.00 | 88 | 1013.5 |
| 20260506100434 | 14 | 198 | 6.4 | 12.9 | 0.00 | 0.00 | 0.00 | 88 | 1013.5 |
| 20260506095934 | 14 | 253 | 6.4 | 12.9 | 0.00 | 0.00 | 0.00 | 87 | 1013.4 |
| 20260506095435 | 14 | 153 | 6.4 | 11.3 | 0.00 | 0.00 | 0.00 | 87 | 1013.3 |
| 20260506094935 | 14 | 170 | 4.8 | 14.5 | 0.00 | 0.00 | 0.00 | 87 | 1013.3 |
| 20260506094435 | 14 | 184 | 4.8 | 14.5 | 0.00 | 0.00 | 0.00 | 87 | 1013.3 |
| 20260506094159 | 14 | 186 | 4.8 | 9.7 | 0.00 | 0.00 | 0.00 | 87 | 1013.2 |
| 20260506093424 | 15 | 338 | 6.4 | 11.3 | 0.00 | 0.00 | 0.00 | 87 | 1013.3 |
| 20260506092923 | 15 | 161 | 6.4 | 12.9 | 0.00 | 0.00 | 0.00 | 87 | 1013.3 |
| 20260506092423 | 15 | 195 | 6.4 | 12.9 | 0.00 | 0.00 | 0.00 | 87 | 1013.3 |
| 20260506091923 | 15 | 263 | 6.4 | 11.3 | 0.00 | 0.00 | 0.00 | 86 | 1013.4 |
| 20260506091417 | 15 | 176 | 6.4 | 11.3 | 0.00 | 0.00 | 0.00 | 86 | 1013.3 |
| 20260506090918 | 15 | 226 | 6.4 | 12.9 | 0.00 | 0.00 | 0.00 | 86 | 1013.4 |
| 20260506090417 | 15 | 268 | 6.4 | 12.9 | 0.00 | 0.00 | 0.00 | 86 | 1013.5 |
| 20260506085918 | 15 | 255 | 6.4 | 12.9 | 0.00 | 0.00 | 0.00 | 86 | 1013.5 |
| 20260506085417 | 15 | 227 | 6.4 | 12.9 | 0.00 | 0.00 | 0.00 | 86 | 1013.5 |
| 20260506085137 | 15 | 160 | 6.4 | 14.5 | 0.00 | 0.00 | 0.00 | 86 | 1013.5 |
| 20260506084419 | 15 | 150 | 6.4 | 16.1 | 0.00 | 0.00 | 0.00 | 85 | 1013.6 |
| 20260506083918 | 15 | 240 | 8.0 | 16.1 | 0.00 | 0.00 | 0.00 | 85 | 1013.6 |
| 20260506083642 | 15 | 224 | 6.4 | 14.5 | 0.00 | 0.00 | 0.00 | 85 | 1013.6 |
| 20260506082917 | 15 | 222 | 6.4 | 16.1 | 0.00 | 0.00 | 0.00 | 85 | 1013.6 |
| 20260506082417 | 15 | 174 | 8.0 | 16.1 | 0.00 | 0.00 | 0.00 | 85 | 1013.5 |
| 20260506081913 | 15 | 208 | 6.4 | 14.5 | 0.00 | 0.00 | 0.00 | 84 | 1013.6 |
| 20260506081408 | 15 | 214 | 8.0 | 14.5 | 0.00 | 0.00 | 0.00 | 84 | 1013.5 |
| 20260506081349 | 15 | 233 | 6.4 | 14.5 | 0.00 | 0.00 | 0.00 | 84 | 1013.6 |
| 20260506080406 | 15 | 181 | 6.4 | 14.5 | 0.00 | 0.00 | 0.00 | 84 | 1013.5 |
| 20260506072907 | 16 | 277 | 8.0 | 17.7 | 0.00 | 0.00 | 0.00 | 82 | 1013.3 |
| 20260506072407 | 16 | 261 | 8.0 | 16.1 | 0.00 | 0.00 | 0.00 | 82 | 1013.4 |
| 20260506072124 | 16 | 266 | 6.4 | 16.1 | 0.00 | 0.00 | 0.00 | 83 | 1013.4 |
| 20260506071407 | 16 | 231 | 6.4 | 12.9 | 0.00 | 0.00 | 0.00 | 82 | 1013.3 |
| 20260506070901 | 16 | 231 | 6.4 | 14.5 | 0.00 | 0.00 | 0.00 | 82 | 1013.3 |
| 20260506070623 | 16 | 262 | 6.4 | 14.5 | 0.00 | 0.00 | 0.00 | 82 | 1013.3 |
| 20260506062402 | 16 | 186 | 8.0 | 17.7 | 0.00 | 0.00 | 0.00 | 82 | 1013.3 |
| 20260506061902 | 16 | 183 | 6.4 | 14.5 | 0.00 | 0.00 | 0.00 | 81 | 1013.2 |
| 20260506061622 | 16 | 198 | 6.4 | 14.5 | 0.00 | 0.00 | 0.00 | 81 | 1013.2 |
| 20260506060903 | 16 | 157 | 6.4 | 19.3 | 0.00 | 0.00 | 0.00 | 81 | 1013.3 |
| 20260506060359 | 16 | 251 | 6.4 | 19.3 | 0.00 | 0.00 | 0.00 | 80 | 1013.3 |
| 20260506051351 | 16 | 165 | 6.4 | 14.5 | 0.00 | 0.00 | 0.00 | 77 | 1013.8 |
| 20260506050852 | 16 | 259 | 6.4 | 14.5 | 0.00 | 0.00 | 0.00 | 76 | 1013.9 |
| 20260506050351 | 16 | 230 | 6.4 | 16.1 | 0.00 | 0.00 | 0.00 | 76 | 1013.9 |
| 20260506045113 | 16 | 264 | 6.4 | 12.9 | 0.00 | 0.00 | 0.00 | 75 | 1013.9 |
| 20260506044615 | 16 | 120 | 6.4 | 14.5 | 0.00 | 0.00 | 0.00 | 75 | 1014.0 |
| 20260506043840 | 16 | 248 | 6.4 | 16.1 | 0.00 | 0.00 | 0.00 | 74 | 1014.0 |
| 20260506043340 | 16 | 37 | 6.4 | 16.1 | 0.00 | 0.00 | 0.00 | 74 | 1013.9 |
| 20260506042840 | 16 | 145 | 6.4 | 14.5 | 0.00 | 0.00 | 0.00 | 74 | 1014.0 |
| 20260506042340 | 16 | 163 | 6.4 | 16.1 | 0.00 | 0.00 | 0.00 | 74 | 1014.0 |
| 20260506041840 | 16 | 267 | 6.4 | 16.1 | 0.00 | 0.00 | 0.00 | 73 | 1014.0 |
| 20260506041600 | 16 | 169 | 6.4 | 14.5 | 0.00 | 0.00 | 0.00 | 73 | 1014.0 |
| 20260506040840 | 16 | 158 | 6.4 | 11.3 | 0.00 | 0.00 | 0.00 | 73 | 1014.0 |
| 20260506040340 | 16 | 241 | 6.4 | 14.5 | 0.00 | 0.00 | 0.00 | 73 | 1013.9 |
| 20260506035840 | 16 | 175 | 6.4 | 16.1 | 0.00 | 0.00 | 0.00 | 72 | 1014.0 |
| 20260506035340 | 16 | 239 | 6.4 | 17.7 | 0.00 | 0.00 | 0.00 | 72 | 1013.9 |
| 20260506034840 | 16 | 219 | 6.4 | 17.7 | 0.00 | 0.00 | 0.00 | 72 | 1013.9 |
| 20260506034340 | 16 | 233 | 6.4 | 17.7 | 0.00 | 0.00 | 0.00 | 71 | 1013.9 |
| 20260506033841 | 17 | 175 | 6.4 | 17.7 | 0.00 | 0.00 | 0.00 | 71 | 1013.8 |
| 20260506033606 | 17 | 257 | 6.4 | 12.9 | 0.00 | 0.00 | 0.00 | 71 | 1013.8 |
| 20260506032835 | 17 | 328 | 6.4 | 12.9 | 0.00 | 0.00 | 0.00 | 70 | 1013.8 |
| 20260506032334 | 17 | 152 | 6.4 | 16.1 | 0.00 | 0.00 | 0.00 | 70 | 1013.8 |
| 20260506031834 | 17 | 270 | 6.4 | 16.1 | 0.00 | 0.00 | 0.00 | 70 | 1013.8 |
| 20260506031554 | 17 | 185 | 6.4 | 14.5 | 0.00 | 0.00 | 0.00 | 70 | 1013.7 |